timestamp,wind_dir_avg,wind_spd_max_dir,wind_spd_avg,wind_spd_gust,battery_voltage,lat,long
2017-11-16 00:00:00+00:00,33.0,37.0,10.4,12.09,,47.59359,-54.27349
2017-11-16 00:10:00+00:00,46.0,49.0,10.29,11.62,,47.59359,-54.27349
2017-11-16 00:20:00+00:00,41.0,43.0,10.51,12.28,,47.59359,-54.27349
2017-11-16 00:30:00+00:00,41.0,50.0,10.17,11.74,,47.59359,-54.27349
2017-11-16 00:40:00+00:00,36.0,35.0,9.41,10.71,,47.59359,-54.27349
2017-11-16 00:50:00+00:00,39.0,36.0,10.22,11.26,,47.59359,-54.27349
2017-11-16 01:00:00+00:00,31.0,33.0,9.67,11.58,,47.59359,-54.27349
2017-11-16 01:10:00+00:00,30.0,32.0,9.23,11.7,,47.59359,-54.27349
2017-11-16 01:20:00+00:00,31.0,28.0,10.62,12.07,,47.59359,-54.27349
2017-11-16 01:30:00+00:00,37.0,41.0,10.11,11.2,,47.59359,-54.27349
2017-11-16 01:40:00+00:00,28.0,28.0,9.56,10.71,,47.59359,-54.27349
2017-11-16 01:50:00+00:00,26.0,24.0,9.04,10.44,,47.59359,-54.27349
2017-11-16 02:00:00+00:00,33.0,29.0,9.02,10.25,,47.59359,-54.27349
2017-11-16 02:10:00+00:00,29.0,33.0,9.84,11.11,,47.59359,-54.27349
2017-11-16 02:20:00+00:00,34.0,43.0,9.83,11.64,,47.59359,-54.27349
2017-11-16 02:30:00+00:00,39.0,43.0,10.0,12.26,,47.59359,-54.27349
2017-11-16 02:40:00+00:00,35.0,31.0,9.35,10.56,,47.59359,-54.27349
2017-11-16 02:50:00+00:00,34.0,35.0,9.98,11.3,,47.59359,-54.27349
2017-11-16 03:00:00+00:00,30.0,38.0,8.43,10.48,,47.59359,-54.27349
2017-11-16 03:10:00+00:00,40.0,38.0,9.12,11.11,,47.59359,-54.27349
2017-11-16 03:20:00+00:00,43.0,48.0,10.71,12.51,,47.59359,-54.27349
2017-11-16 03:30:00+00:00,35.0,41.0,10.96,12.69,,47.59359,-54.27349
2017-11-16 03:40:00+00:00,35.0,37.0,10.99,12.24,,47.59359,-54.27349
2017-11-16 03:50:00+00:00,35.0,36.0,10.06,11.46,,47.59359,-54.27349
2017-11-16 04:00:00+00:00,30.0,29.0,9.78,10.74,,47.59359,-54.27349
2017-11-16 04:10:00+00:00,29.0,40.0,8.77,10.25,,47.59359,-54.27349
2017-11-16 04:20:00+00:00,37.0,43.0,10.01,11.4,,47.59359,-54.27349
2017-11-16 04:30:00+00:00,29.0,30.0,8.71,10.79,,47.59359,-54.27349
2017-11-16 04:40:00+00:00,29.0,37.0,9.11,11.35,,47.59359,-54.27349
2017-11-16 04:50:00+00:00,26.0,27.0,8.45,9.77,,47.59359,-54.27349
2017-11-16 05:00:00+00:00,29.0,35.0,8.2,9.81,,47.59359,-54.27349
2017-11-16 05:10:00+00:00,31.0,35.0,8.77,10.23,,47.59359,-54.27349
2017-11-16 05:20:00+00:00,27.0,29.0,9.52,10.93,,47.59359,-54.27349
2017-11-16 05:30:00+00:00,39.0,38.0,9.82,11.77,,47.59359,-54.27349
2017-11-16 05:40:00+00:00,24.0,30.0,9.73,11.32,,47.59359,-54.27349
2017-11-16 05:50:00+00:00,16.0,20.0,8.87,10.32,,47.59359,-54.27349
2017-11-16 06:00:00+00:00,13.0,12.0,9.31,10.21,,47.59359,-54.27349
2017-11-16 06:10:00+00:00,28.0,26.0,7.61,10.15,,47.59359,-54.27349
2017-11-16 06:20:00+00:00,22.0,30.0,8.45,10.35,,47.59359,-54.27349
2017-11-16 06:30:00+00:00,25.0,33.0,9.03,10.85,,47.59359,-54.27349
2017-11-16 06:40:00+00:00,25.0,38.0,7.99,9.79,,47.59359,-54.27349
2017-11-16 06:50:00+00:00,22.0,14.0,9.69,12.64,,47.59359,-54.27349
2017-11-16 07:00:00+00:00,24.0,15.0,9.85,11.21,,47.59359,-54.27349
2017-11-16 07:10:00+00:00,22.0,14.0,9.09,10.79,,47.59359,-54.27349
2017-11-16 07:20:00+00:00,19.0,17.0,7.67,8.45,,47.59359,-54.27349
2017-11-16 07:30:00+00:00,22.0,33.0,8.37,10.44,,47.59359,-54.27349
2017-11-16 07:40:00+00:00,32.0,32.0,8.26,9.92,,47.59359,-54.27349
2017-11-16 07:50:00+00:00,37.0,39.0,7.84,8.91,,47.59359,-54.27349
2017-11-16 08:00:00+00:00,47.0,51.0,9.26,10.7,,47.59359,-54.27349
2017-11-16 08:10:00+00:00,46.0,44.0,9.49,10.67,,47.59359,-54.27349
2017-11-16 08:20:00+00:00,34.0,35.0,9.74,10.95,,47.59359,-54.27349
2017-11-16 08:30:00+00:00,36.0,42.0,12.09,13.91,,47.59359,-54.27349
2017-11-16 08:40:00+00:00,39.0,51.0,10.43,12.84,,47.59359,-54.27349
2017-11-16 08:50:00+00:00,46.0,48.0,9.67,11.05,,47.59359,-54.27349
2017-11-16 09:00:00+00:00,51.0,50.0,8.99,9.7,,47.59359,-54.27349
2017-11-16 09:10:00+00:00,46.0,38.0,9.19,10.24,,47.59359,-54.27349
2017-11-16 09:20:00+00:00,49.0,56.0,10.25,12.54,,47.59359,-54.27349
2017-11-16 09:30:00+00:00,38.0,41.0,6.94,8.19,,47.59359,-54.27349
2017-11-16 09:40:00+00:00,37.0,38.0,7.84,9.13,,47.59359,-54.27349
2017-11-16 09:50:00+00:00,23.0,10.0,7.94,9.39,,47.59359,-54.27349
2017-11-16 10:00:00+00:00,21.0,14.0,7.79,10.57,,47.59359,-54.27349
2017-11-16 10:10:00+00:00,16.0,30.0,7.91,9.87,,47.59359,-54.27349
2017-11-16 10:20:00+00:00,18.0,21.0,7.05,8.42,,47.59359,-54.27349
2017-11-16 10:30:00+00:00,23.0,27.0,6.9,8.25,,47.59359,-54.27349
2017-11-16 10:40:00+00:00,20.0,14.0,6.8,9.65,,47.59359,-54.27349
2017-11-16 10:50:00+00:00,25.0,29.0,6.6,8.48,,47.59359,-54.27349
2017-11-16 11:00:00+00:00,16.0,29.0,5.24,6.73,,47.59359,-54.27349
2017-11-16 11:10:00+00:00,20.0,12.0,6.29,7.23,,47.59359,-54.27349
2017-11-16 11:20:00+00:00,42.0,52.0,7.67,8.82,,47.59359,-54.27349
2017-11-16 11:30:00+00:00,26.0,33.0,6.82,8.06,,47.59359,-54.27349
2017-11-16 11:40:00+00:00,28.0,26.0,7.0,7.99,,47.59359,-54.27349
2017-11-16 11:50:00+00:00,13.0,9.0,5.09,6.16,,47.59359,-54.27349
2017-11-16 12:00:00+00:00,10.0,2.0,6.21,7.15,,47.59359,-54.27349
2017-11-16 12:10:00+00:00,3.0,0.0,6.65,7.59,,47.59359,-54.27349
2017-11-16 12:20:00+00:00,6.0,2.0,6.01,7.66,,47.59359,-54.27349
2017-11-16 12:30:00+00:00,6.0,2.0,7.49,9.11,,47.59359,-54.27349
2017-11-16 12:40:00+00:00,10.0,7.0,7.44,8.44,,47.59359,-54.27349
2017-11-16 12:50:00+00:00,14.0,10.0,7.21,8.23,,47.59359,-54.27349
2017-11-16 13:00:00+00:00,10.0,2.0,5.93,6.97,,47.59359,-54.27349
2017-11-16 13:10:00+00:00,29.0,40.0,6.42,8.31,,47.59359,-54.27349
2017-11-16 13:20:00+00:00,40.0,36.0,7.87,9.2,,47.59359,-54.27349
2017-11-16 13:30:00+00:00,42.0,38.0,7.41,8.27,,47.59359,-54.27349
2017-11-16 13:40:00+00:00,40.0,42.0,7.3,8.03,,47.59359,-54.27349
2017-11-16 13:50:00+00:00,39.0,42.0,6.01,6.93,,47.59359,-54.27349
2017-11-16 14:00:00+00:00,39.0,38.0,4.61,5.86,,47.59359,-54.27349
2017-11-16 14:10:00+00:00,40.0,50.0,5.16,6.07,,47.59359,-54.27349
2017-11-16 14:20:00+00:00,37.0,35.0,4.66,5.34,,47.59359,-54.27349
2017-11-16 14:30:00+00:00,49.0,60.0,4.6,5.42,,47.59359,-54.27349
2017-11-16 14:40:00+00:00,30.0,36.0,4.24,5.23,,47.59359,-54.27349
2017-11-16 14:50:00+00:00,24.0,20.0,3.86,4.81,,47.59359,-54.27349
2017-11-16 15:00:00+00:00,12.0,23.0,4.18,4.95,,47.59359,-54.27349
2017-11-16 15:10:00+00:00,355.0,14.0,5.03,6.44,,47.59359,-54.27349
2017-11-16 15:20:00+00:00,353.0,357.0,5.62,6.76,,47.59359,-54.27349
2017-11-16 15:30:00+00:00,0.0,359.0,4.78,5.9,,47.59359,-54.27349
2017-11-16 15:40:00+00:00,21.0,21.0,2.55,4.06,,47.59359,-54.27349
2017-11-16 15:50:00+00:00,43.0,39.0,6.34,7.51,,47.59359,-54.27349
2017-11-16 16:00:00+00:00,40.0,40.0,5.14,5.71,,47.59359,-54.27349
2017-11-16 16:10:00+00:00,33.0,21.0,5.22,6.38,,47.59359,-54.27349
2017-11-16 16:20:00+00:00,36.0,36.0,4.76,6.39,,47.59359,-54.27349
2017-11-16 16:30:00+00:00,42.0,44.0,4.81,5.54,,47.59359,-54.27349
2017-11-16 16:40:00+00:00,40.0,44.0,5.34,5.93,,47.59359,-54.27349
2017-11-16 16:50:00+00:00,34.0,40.0,4.94,5.74,,47.59359,-54.27349
2017-11-16 17:00:00+00:00,26.0,31.0,5.19,6.19,,47.59359,-54.27349
2017-11-16 17:10:00+00:00,10.0,12.0,5.62,6.4,,47.59359,-54.27349
2017-11-16 17:20:00+00:00,19.0,26.0,5.38,6.19,,47.59359,-54.27349
2017-11-16 17:30:00+00:00,15.0,19.0,4.67,5.41,,47.59359,-54.27349
2017-11-16 17:40:00+00:00,14.0,13.0,6.77,7.46,,47.59359,-54.27349
2017-11-16 17:50:00+00:00,40.0,47.0,6.23,6.88,,47.59359,-54.27349
2017-11-16 18:00:00+00:00,25.0,29.0,6.71,7.44,,47.59359,-54.27349
2017-11-16 18:10:00+00:00,29.0,33.0,6.43,7.36,,47.59359,-54.27349
2017-11-16 18:20:00+00:00,38.0,42.0,7.47,8.51,,47.59359,-54.27349
2017-11-16 18:30:00+00:00,33.0,33.0,8.24,9.44,,47.59359,-54.27349
2017-11-16 18:40:00+00:00,26.0,29.0,6.37,7.59,,47.59359,-54.27349
2017-11-16 18:50:00+00:00,37.0,36.0,7.85,8.57,,47.59359,-54.27349
2017-11-16 19:00:00+00:00,33.0,34.0,6.73,7.55,,47.59359,-54.27349
2017-11-16 19:10:00+00:00,18.0,17.0,6.47,7.1,,47.59359,-54.27349
2017-11-16 19:20:00+00:00,29.0,34.0,6.01,6.5,,47.59359,-54.27349
2017-11-16 19:30:00+00:00,22.0,12.0,6.5,7.6,,47.59359,-54.27349
2017-11-16 19:40:00+00:00,29.0,21.0,6.28,7.0,,47.59359,-54.27349
2017-11-16 19:50:00+00:00,28.0,35.0,5.84,6.65,,47.59359,-54.27349
2017-11-16 20:00:00+00:00,27.0,33.0,6.93,7.65,,47.59359,-54.27349
2017-11-16 20:10:00+00:00,36.0,38.0,7.91,8.72,,47.59359,-54.27349
2017-11-16 20:20:00+00:00,35.0,38.0,7.26,7.85,,47.59359,-54.27349
2017-11-16 20:30:00+00:00,40.0,47.0,6.53,7.3,,47.59359,-54.27349
2017-11-16 20:40:00+00:00,32.0,35.0,6.1,6.69,,47.59359,-54.27349
2017-11-16 20:50:00+00:00,24.0,16.0,6.13,7.15,,47.59359,-54.27349
2017-11-16 21:00:00+00:00,25.0,24.0,5.56,6.31,,47.59359,-54.27349
2017-11-16 21:10:00+00:00,34.0,37.0,5.28,6.23,,47.59359,-54.27349
2017-11-16 21:20:00+00:00,33.0,28.0,5.17,6.25,,47.59359,-54.27349
2017-11-16 21:30:00+00:00,32.0,33.0,5.42,6.83,,47.59359,-54.27349
2017-11-16 21:40:00+00:00,34.0,36.0,5.45,6.34,,47.59359,-54.27349
2017-11-16 21:50:00+00:00,27.0,31.0,5.49,6.26,,47.59359,-54.27349
2017-11-16 22:00:00+00:00,31.0,43.0,3.85,5.03,,47.59359,-54.27349
2017-11-16 22:10:00+00:00,336.0,333.0,3.08,3.53,,47.59359,-54.27349
2017-11-16 22:20:00+00:00,343.0,338.0,3.44,4.15,,47.59359,-54.27349
2017-11-16 22:30:00+00:00,345.0,346.0,3.07,3.71,,47.59359,-54.27349
2017-11-16 22:40:00+00:00,20.0,25.0,4.59,5.42,,47.59359,-54.27349
2017-11-16 22:50:00+00:00,12.0,3.0,4.18,5.26,,47.59359,-54.27349
2017-11-16 23:00:00+00:00,30.0,22.0,3.57,4.16,,47.59359,-54.27349
2017-11-16 23:10:00+00:00,28.0,35.0,4.0,5.04,,47.59359,-54.27349
2017-11-16 23:20:00+00:00,16.0,26.0,3.73,4.44,,47.59359,-54.27349
2017-11-16 23:30:00+00:00,19.0,24.0,4.03,4.64,,47.59359,-54.27349
2017-11-16 23:40:00+00:00,29.0,30.0,6.59,8.03,,47.59359,-54.27349
2017-11-16 23:50:00+00:00,31.0,33.0,7.04,7.73,,47.59359,-54.27349
